sat.trackr.live / text

‹ back to catalog

YAOGAN-40 03B

NORAD 65545 · 2025-199B

PAYLOAD ACTIVE UNKNOWN

§ Identity

Operator
Country
PRC
Launch date
2025-09-06
Launch site
TAISC
Launch vehicle
Mass (kg)
RCS (m²)

External: N2YO · Heavens-Above · Gunter

§ Orbital elements

Epoch: 2026-09-20T06:02:48.607872Z

Period
101.95 min
Inclination
85.9968°
Eccentricity
0.0002095
Mean motion
14.12463668 rev/d
Perigee alt
849.4 km
Apogee alt
852.5 km
Semi-major
7,229.1 km
B*
2.8649e-5
RAAN
1.4321°
Arg perigee
107.7970°
Mean anomaly
252.3442°
Rev number
5,345

§ Raw data

YAOGAN-40 03B1 65545U 25199B   26263.25195148  .00000072  00000+0  28649-4 0  99962 65545  85.9968   1.4321 0002095 107.7970 252.3442 14.12463668 53450

JSON: /api/v1/satellites/65545 · /tle

For live sub-satellite position, see the globe view (requires WebGL).

§ Visibility from observer

Set your observer location to see the next 7 days of passes ≥ 10°. The values pass through the URL so the page stays shareable.

No JS? Fill the form by hand. The geolocation button needs JavaScript.